Prince Rupert,

3:52 AM PDT on July 23, 2017 (GMT -0700)
Prince Rupert

Weather History for CYPR - December, 2013

Change the Weather History Date:

Monday, December 16, 2013

  Actual Average Record
Temperature  
Mean Temperature 44 °F -  
Max Temperature 50 °F 40 °F 50 °F (2004)
Min Temperature 37 °F 32 °F 13 °F (2016)
Degree Days  
Heating Degree Days 22    
Moisture  
Dew Point 39 °F    
Average Humidity 88    
Maximum Humidity 100    
Minimum Humidity 66    
Precipitation  
Precipitation 0.43 in - - ()
Sea Level Pressure  
Sea Level Pressure 29.83 in    
Wind  
Wind Speed 14 mph ()    
Max Wind Speed 38 mph    
Max Gust Speed 50 mph    
Visibility 7.2 miles    
Events Rain    
Averages and records for this station are not official NWS values.
T = Trace of Precipitation, MM = Missing Value Source: Averaged Metar Reports

Daily Weather History Graph

Daily Weather History Graph

Search for Another Location

Airport or City:

Trip Planner

Search our weather history database for the weather conditions in past years. The results will help you decide how hot, cold, wet, or windy it might be!

Date:

Astronomy

Dec. 16, 2013 Rise Set
Actual Time 8:57 AM PST 4:17 PM PST
Civil Twilight 8:13 AM PST 5:02 PM PST
Nautical Twilight 7:26 AM PST 5:48 PM PST
Astronomical Twilight 6:42 AM PST 6:32 PM PST
Moon 4:23 PM PST (12/16) 8:01 AM PST (12/16)
Length of Visible Light 8h 48m
Length of Day
7h 20m
Full, 100% of the Moon is Illuminated
Dec 16
Full
Dec 17
Full
Dec 25
Last Quarter
Jan 1
New
Jan 7
First Quarter

Hourly Weather History & Observations

Time (PST) Temp. Windchill Dew Point Humidity Pressure Visibility Wind Dir Wind Speed Gust Speed Precip Events Conditions
12:00 AM 41.0 °F 35.2 °F 35.6 °F 81% 30.19 in 9.0 mi SSW 9.2 mph - N/A   Overcast
1:00 AM 42.8 °F 38.0 °F 35.6 °F 76% 30.20 in 9.0 mi SW 8.1 mph - N/A   Overcast
2:00 AM 42.8 °F 35.1 °F 33.8 °F 70% 30.22 in 9.0 mi SW 16.1 mph 23.0 mph N/A   Overcast
3:00 AM 41.0 °F 34.7 °F 35.6 °F 81% 30.24 in 9.0 mi SW 10.4 mph - N/A   Overcast
3:04 AM 41.0 °F 34.7 °F 35.6 °F 81% 30.24 in 9.0 mi SSW 10.4 mph - N/A   Overcast
3:15 AM 41.0 °F 35.8 °F 35.6 °F 81% 30.24 in 9.0 mi SW 8.1 mph 19.6 mph N/A   Overcast
4:00 AM 42 °F - 34 °F 66% 30.25 in 10 mi SW 11.5 mph - -   Clear
4:00 AM 41.0 °F 33.9 °F 33.8 °F 76% 30.25 in 9.0 mi SW 12.7 mph 18.4 mph N/A   Overcast
4:46 AM 42.8 °F 38.0 °F 35.6 °F 76% 30.25 in 9.0 mi SSW 8.1 mph - N/A Rain Light Rain
5:00 AM 42.8 °F 36.2 °F 33.8 °F 70% 30.25 in 9.0 mi SW 12.7 mph 18.4 mph N/A   Overcast
6:00 AM 41.0 °F 36.4 °F 37.4 °F 87% 30.25 in 9.0 mi SSW 6.9 mph - N/A   Overcast
7:00 AM 41.0 °F 37.1 °F 33.8 °F 76% 30.25 in 9.0 mi South 5.8 mph - N/A   Mostly Cloudy
8:00 AM 39.2 °F 32.5 °F 33.8 °F 81% 30.25 in 9.0 mi SSE 10.4 mph - N/A   Overcast
9:00 AM 39.2 °F 33.6 °F 33.8 °F 81% 30.25 in 9.0 mi SSE 8.1 mph - N/A   Overcast
10:00 AM 39 °F - 34 °F 77% 30.25 in 10 mi SE 11.5 mph - -   Overcast
10:00 AM 39.2 °F 32.5 °F 33.8 °F 81% 30.25 in 9.0 mi SSE 10.4 mph 17.3 mph N/A   Overcast
10:12 AM 39.2 °F 32.5 °F 35.6 °F 87% 30.25 in 9.0 mi SE 10.4 mph - N/A Rain Light Rain
10:28 AM 39.2 °F 32.0 °F 35.6 °F 87% 30.24 in 9.0 mi ESE 11.5 mph 17.3 mph N/A   Overcast
10:33 AM 39.2 °F 32.0 °F 35.6 °F 87% 30.23 in 9.0 mi SE 11.5 mph 17.3 mph N/A Rain Light Rain
11:00 AM 39.2 °F 32.5 °F 35.6 °F 87% 30.22 in 9.0 mi ESE 10.4 mph - N/A Rain Light Rain
12:00 PM 39.2 °F 32.0 °F 37.4 °F 93% 30.18 in 9.0 mi SE 11.5 mph - N/A Rain Light Rain
12:31 PM 39.2 °F 31.6 °F 37.4 °F 93% 30.15 in 5.0 mi ESE 12.7 mph - N/A Rain Light Rain
12:54 PM 39.2 °F 32.0 °F 37.4 °F 93% 30.13 in 6.0 mi ESE 11.5 mph - N/A Rain Light Rain
1:00 PM 39.2 °F 32.0 °F 37.4 °F 93% 30.12 in 8.0 mi ESE 11.5 mph - N/A Rain Light Rain
2:00 PM 37.4 °F 29.8 °F 37.4 °F 100% 30.05 in 9.0 mi SE 11.5 mph - N/A Rain Light Rain
2:50 PM 39.2 °F 32.0 °F 37.4 °F 93% 30.00 in 5.0 mi SE 11.5 mph - N/A Rain Light Rain
3:00 PM 39.2 °F 31.2 °F 37.4 °F 93% 29.99 in 5.0 mi SE 13.8 mph - N/A Rain Light Rain
3:04 PM 39.2 °F 31.6 °F 37.4 °F 93% 29.98 in 5.0 mi ESE 12.7 mph 18.4 mph N/A Rain Light Rain
3:31 PM 39.2 °F 31.2 °F 35.6 °F 87% 29.94 in 6.0 mi SE 13.8 mph 23.0 mph N/A Rain Light Rain
3:51 PM 39.2 °F 31.2 °F 35.6 °F 87% 29.91 in 5.0 mi ESE 13.8 mph 21.9 mph N/A Rain Rain
4:00 PM 38 °F - 36 °F 90% 29.89 in 5 mi ESE 15.0 mph - - Rain Rain
4:00 PM 37.4 °F 27.8 °F 35.6 °F 93% 29.89 in 5.0 mi ESE 17.3 mph - N/A Rain Rain
4:13 PM 39.2 °F 30.5 °F 35.6 °F 87% 29.86 in 6.0 mi SE 16.1 mph 25.3 mph N/A Rain Light Rain
4:36 PM 39.2 °F 29.6 °F 35.6 °F 87% 29.82 in 5.0 mi SE 19.6 mph 25.3 mph N/A Rain Light Rain
5:00 PM 39.2 °F 28.3 °F 35.6 °F 87% 29.78 in 3.0 mi SE 25.3 mph 35.7 mph N/A Rain Rain
5:33 PM 39.2 °F 28.0 °F 37.4 °F 93% 29.70 in 3.0 mi SE 26.5 mph 39.1 mph N/A Rain Light Rain
5:48 PM 39.2 °F 27.8 °F 37.4 °F 93% 29.68 in 6.0 mi SE 27.6 mph 35.7 mph N/A Rain Light Rain
6:00 PM 39.2 °F 28.0 °F 37.4 °F 93% 29.66 in 6.0 mi SE 26.5 mph 40.3 mph N/A Rain Light Rain
6:13 PM 41.0 °F 28.6 °F 37.4 °F 87% 29.64 in 8.0 mi SE 38.0 mph 48.3 mph N/A Rain Light Rain
6:33 PM 41.0 °F 32.2 °F 37.4 °F 87% 29.64 in 5.0 mi SSE 18.4 mph 41.4 mph N/A Rain Light Rain
6:52 PM 41.0 °F 29.7 °F 39.2 °F 93% 29.59 in 4.0 mi SE 31.1 mph 42.6 mph N/A Rain Light Rain
7:00 PM 41.0 °F 29.8 °F 39.2 °F 93% 29.60 in 4.0 mi SE 29.9 mph 49.5 mph N/A Rain Light Rain
7:20 PM 42.8 °F 31.9 °F 39.2 °F 87% 29.59 in 6.0 mi SE 32.2 mph 46.0 mph N/A Rain Light Rain
7:45 PM 42.8 °F 33.3 °F 41.0 °F 93% 29.59 in 5.0 mi SE 24.2 mph 39.1 mph N/A Rain Light Rain
7:55 PM 42.8 °F 33.8 °F 41.0 °F 93% 29.57 in 7.0 mi SE 21.9 mph 32.2 mph N/A Rain Light Rain
8:00 PM 42.8 °F 34.0 °F 41.0 °F 93% 29.57 in 9.0 mi SE 20.7 mph 29.9 mph N/A Rain Light Rain
8:04 PM 42.8 °F 33.5 °F 41.0 °F 93% 29.57 in 9.0 mi SE 23.0 mph 32.2 mph N/A Rain Light Rain
8:17 PM 42.8 °F 34.5 °F 41.0 °F 93% 29.57 in 5.0 mi SE 18.4 mph 34.5 mph N/A Rain Light Rain
8:31 PM 42.8 °F 33.1 °F 42.8 °F 100% 29.55 in 2.5 mi SE 25.3 mph 34.5 mph N/A Rain Light Rain
8:46 PM 42.8 °F 33.5 °F 42.8 °F 100% 29.55 in 3.0 mi SE 23.0 mph 36.8 mph N/A Rain Light Rain
9:00 PM 44.6 °F 35.9 °F 42.8 °F 93% 29.53 in 4.0 mi SE 23.0 mph 34.5 mph N/A Rain Light Rain
9:40 PM 44.6 °F 35.7 °F 44.6 °F 100% 29.49 in 6.0 mi SE 24.2 mph 33.4 mph N/A Rain Light Rain
10:00 PM 46 °F - 46 °F 98% 29.47 in 9 mi SE 21.9 mph - - Rain Light Rain
10:00 PM 46.4 °F 39.0 °F 46.4 °F 100% 29.47 in 9.0 mi SE 19.6 mph 32.2 mph N/A Rain Light Rain
10:33 PM 48.2 °F - 46.4 °F 93% 29.45 in 9.0 mi SSE 26.5 mph 39.1 mph N/A   Overcast
10:34 PM 48.2 °F - 46.4 °F 93% 29.45 in 9.0 mi SSE 25.3 mph 39.1 mph N/A Rain Light Rain
10:45 PM 48.2 °F - 46.4 °F 93% 29.45 in 9.0 mi SSE 24.2 mph 38.0 mph N/A   Overcast
10:46 PM 48.2 °F - 46.4 °F 93% 29.44 in 9.0 mi SSE 24.2 mph 38.0 mph N/A Rain Light Rain
10:58 PM 48.2 °F - 46.4 °F 93% 29.44 in 9.0 mi SSE 20.7 mph 33.4 mph N/A   Overcast
10:59 PM 48.2 °F - 46.4 °F 93% 29.44 in 9.0 mi SSE 21.9 mph 33.4 mph N/A Rain Light Rain
11:00 PM 48.2 °F - 46.4 °F 93% 29.44 in 9.0 mi SSE 23.0 mph 33.4 mph N/A Rain Light Rain
11:14 PM 48.2 °F - 46.4 °F 93% 29.44 in 5.0 mi SSE 18.4 mph 34.5 mph N/A Rain Light Rain
11:21 PM 48.2 °F - 46.4 °F 93% 29.43 in 5.0 mi South 16.1 mph 31.1 mph N/A Rain Light Rain
11:24 PM 50.0 °F - 46.4 °F 87% 29.44 in 6.0 mi SSE 20.7 mph 35.7 mph N/A Rain Light Rain
11:32 PM 50.0 °F - 46.4 °F 87% 29.43 in 5.0 mi South 16.1 mph 32.2 mph N/A Rain Light Rain
11:43 PM 50.0 °F - 46.4 °F 87% 29.43 in 6.0 mi SSE 18.4 mph 32.2 mph N/A Rain Light Rain
11:53 PM 50.0 °F - 46.4 °F 87% 29.44 in 9.0 mi South 16.1 mph 33.4 mph N/A   Overcast
11:56 PM 50.0 °F - 46.4 °F 87% 29.44 in 9.0 mi South 16.1 mph 33.4 mph N/A Rain Light Rain